Time,TemperatureF,DewpointF,PressureIn,WindDirection,WindDirectionDegrees,WindSpeedMPH,WindSpeedGustMPH,Humidity,HourlyPrecipIn,Conditions,Clouds,dailyrainin,SoftwareType,DateUTC
2013-02-25 00:08:00,38.5,18.0,29.93,South,169,4.0,12.0,44,0.00,,,0.00,weatherlink.com 1.10,2013-02-25 05:08:00,
2013-02-25 00:23:00,38.9,17.0,29.93,SSE,168,2.0,12.0,42,0.00,,,0.00,weatherlink.com 1.10,2013-02-25 05:23:00,
2013-02-25 00:38:00,38.9,16.0,29.93,South,169,2.0,9.0,40,0.00,,,0.00,weatherlink.com 1.10,2013-02-25 05:38:00,
2013-02-25 00:53:00,38.8,16.0,29.93,South,171,1.0,8.0,40,0.00,,,0.00,weatherlink.com 1.10,2013-02-25 05:53:00,
2013-02-25 01:08:00,38.6,17.0,29.93,South,170,3.0,6.0,41,0.00,,,0.00,weatherlink.com 1.10,2013-02-25 06:08:00,
2013-02-25 01:23:00,38.9,17.0,29.94,South,172,1.0,7.0,41,0.00,,,0.00,weatherlink.com 1.10,2013-02-25 06:23:00,
2013-02-25 01:38:00,40.0,15.0,29.94,South,172,1.0,5.0,37,0.00,,,0.00,weatherlink.com 1.10,2013-02-25 06:38:00,
2013-02-25 01:53:00,39.5,17.0,29.93,South,173,2.0,6.0,40,0.00,,,0.00,weatherlink.com 1.10,2013-02-25 06:53:00,
2013-02-25 02:08:00,41.3,17.0,29.93,South,173,0.0,4.0,37,0.00,,,0.00,weatherlink.com 1.10,2013-02-25 07:08:00,
2013-02-25 02:23:00,41.3,17.0,29.94,South,173,0.0,2.0,37,0.00,,,0.00,weatherlink.com 1.10,2013-02-25 07:23:00,
2013-02-25 02:38:00,40.8,16.0,29.93,South,173,0.0,0.0,37,0.00,,,0.00,weatherlink.com 1.10,2013-02-25 07:38:00,
2013-02-25 02:53:00,40.7,16.0,29.94,South,173,0.0,1.0,37,0.00,,,0.00,weatherlink.com 1.10,2013-02-25 07:53:00,
2013-02-25 03:08:00,40.7,15.0,29.95,South,173,0.0,1.0,35,0.00,,,0.00,weatherlink.com 1.10,2013-02-25 08:08:00,
2013-02-25 03:23:00,40.3,16.0,29.94,South,173,0.0,0.0,37,0.00,,,0.00,weatherlink.com 1.10,2013-02-25 08:23:00,
2013-02-25 03:38:00,38.4,17.0,29.93,South,173,2.0,2.0,42,0.00,,,0.00,weatherlink.com 1.10,2013-02-25 08:38:00,
2013-02-25 03:53:00,36.6,18.0,29.93,South,173,2.0,2.0,48,0.00,,,0.00,weatherlink.com 1.10,2013-02-25 08:53:00,
2013-02-25 04:08:00,34.7,19.0,29.94,South,173,1.0,4.0,54,0.00,,,0.00,weatherlink.com 1.10,2013-02-25 09:08:00,
2013-02-25 04:23:00,34.3,20.0,29.94,South,173,4.0,4.0,55,0.00,,,0.00,weatherlink.com 1.10,2013-02-25 09:23:00,
2013-02-25 04:38:00,33.8,21.0,29.95,South,173,2.0,4.0,59,0.00,,,0.00,weatherlink.com 1.10,2013-02-25 09:38:00,
2013-02-25 04:53:00,33.4,21.0,29.95,South,173,3.0,4.0,60,0.00,,,0.00,weatherlink.com 1.10,2013-02-25 09:53:00,
2013-02-25 05:08:00,33.7,21.0,29.96,South,173,3.0,4.0,60,0.00,,,0.00,weatherlink.com 1.10,2013-02-25 10:08:00,
2013-02-25 05:24:00,33.7,21.0,29.96,South,173,2.0,4.0,60,0.00,,,0.00,weatherlink.com 1.10,2013-02-25 10:24:00,
2013-02-25 05:38:00,33.9,21.0,29.96,South,173,2.0,5.0,60,0.00,,,0.00,weatherlink.com 1.10,2013-02-25 10:38:00,
2013-02-25 05:54:00,33.7,21.0,29.96,South,178,2.0,5.0,60,0.00,,,0.00,weatherlink.com 1.10,2013-02-25 10:54:00,
2013-02-25 06:09:00,33.2,21.0,29.97,South,178,4.0,6.0,61,0.00,,,0.00,weatherlink.com 1.10,2013-02-25 11:09:00,
2013-02-25 06:24:00,32.8,21.0,29.98,South,179,3.0,5.0,62,0.00,,,0.00,weatherlink.com 1.10,2013-02-25 11:24:00,
2013-02-25 06:39:00,32.3,21.0,29.97,South,181,3.0,8.0,63,0.00,,,0.00,weatherlink.com 1.10,2013-02-25 11:39:00,
2013-02-25 06:54:00,31.8,21.0,29.98,South,181,3.0,5.0,64,0.00,,,0.00,weatherlink.com 1.10,2013-02-25 11:54:00,
2013-02-25 07:09:00,31.5,21.0,29.99,South,184,4.0,8.0,66,0.00,,,0.00,weatherlink.com 1.10,2013-02-25 12:09:00,
2013-02-25 07:24:00,31.0,21.0,29.99,South,184,3.0,7.0,67,0.00,,,0.00,weatherlink.com 1.10,2013-02-25 12:24:00,
2013-02-25 07:39:00,30.7,21.0,29.99,South,183,5.0,5.0,68,0.00,,,0.00,weatherlink.com 1.10,2013-02-25 12:39:00,
2013-02-25 07:54:00,30.8,21.0,30.00,South,183,4.0,7.0,68,0.00,,,0.00,weatherlink.com 1.10,2013-02-25 12:54:00,
2013-02-25 08:09:00,31.1,21.0,30.01,South,179,4.0,5.0,67,0.00,,,0.00,weatherlink.com 1.10,2013-02-25 13:09:00,
2013-02-25 08:24:00,31.5,21.0,30.02,South,180,3.0,7.0,66,0.00,,,0.00,weatherlink.com 1.10,2013-02-25 13:24:00,
2013-02-25 08:39:00,31.9,21.0,30.02,South,179,4.0,10.0,65,0.00,,,0.00,weatherlink.com 1.10,2013-02-25 13:39:00,
2013-02-25 08:54:00,32.1,22.0,30.03,South,186,5.0,9.0,66,0.00,,,0.00,weatherlink.com 1.10,2013-02-25 13:54:00,
2013-02-25 09:09:00,32.1,22.0,30.04,South,184,2.0,7.0,66,0.00,,,0.00,weatherlink.com 1.10,2013-02-25 14:09:00,
2013-02-25 09:24:00,32.4,23.0,30.04,South,184,2.0,7.0,67,0.00,,,0.00,weatherlink.com 1.10,2013-02-25 14:24:00,
2013-02-25 09:39:00,32.1,22.0,30.04,South,184,3.0,6.0,67,0.00,,,0.00,weatherlink.com 1.10,2013-02-25 14:39:00,
2013-02-25 10:09:00,32.0,23.0,30.04,South,183,3.0,6.0,70,0.00,,,0.00,weatherlink.com 1.10,2013-02-25 15:09:00,
2013-02-25 10:24:00,31.8,22.0,30.04,South,184,4.0,6.0,68,0.00,,,0.00,weatherlink.com 1.10,2013-02-25 15:24:00,
2013-02-25 10:39:00,32.0,24.0,30.04,South,184,2.0,5.0,71,0.00,,,0.00,weatherlink.com 1.10,2013-02-25 15:39:00,
2013-02-25 10:54:00,32.0,23.0,30.03,South,184,2.0,5.0,70,0.00,,,0.00,weatherlink.com 1.10,2013-02-25 15:54:00,
2013-02-25 11:09:00,32.6,24.0,30.03,South,184,3.0,6.0,70,0.00,,,0.00,weatherlink.com 1.10,2013-02-25 16:09:00,
2013-02-25 11:24:00,33.5,24.0,30.02,South,184,5.0,5.0,67,0.00,,,0.00,weatherlink.com 1.10,2013-02-25 16:24:00,
2013-02-25 11:39:00,33.3,24.0,30.02,South,184,3.0,5.0,68,0.00,,,0.00,weatherlink.com 1.10,2013-02-25 16:39:00,
2013-02-25 11:54:00,33.4,22.0,30.02,South,183,2.0,6.0,64,0.00,,,0.00,weatherlink.com 1.10,2013-02-25 16:54:00,
2013-02-25 12:09:00,33.9,23.0,30.02,South,184,2.0,6.0,65,0.00,,,0.00,weatherlink.com 1.10,2013-02-25 17:09:00,
2013-02-25 12:24:00,33.5,24.0,30.01,South,183,2.0,5.0,68,0.00,,,0.00,weatherlink.com 1.10,2013-02-25 17:24:00,
2013-02-25 12:39:00,33.8,24.0,30.02,South,183,2.0,4.0,67,0.00,,,0.00,weatherlink.com 1.10,2013-02-25 17:39:00,
2013-02-25 12:54:00,34.8,24.0,30.00,South,184,2.0,4.0,66,0.00,,,0.00,weatherlink.com 1.10,2013-02-25 17:54:00,
2013-02-25 13:09:00,35.1,24.0,30.00,South,183,2.0,5.0,65,0.00,,,0.00,weatherlink.com 1.10,2013-02-25 18:09:00,
2013-02-25 13:24:00,35.2,24.0,30.00,South,183,2.0,4.0,65,0.00,,,0.00,weatherlink.com 1.10,2013-02-25 18:24:00,
2013-02-25 13:39:00,35.1,24.0,29.98,South,184,2.0,5.0,64,0.00,,,0.00,weatherlink.com 1.10,2013-02-25 18:39:00,
2013-02-25 13:54:00,35.4,25.0,29.98,South,183,2.0,6.0,66,0.00,,,0.00,weatherlink.com 1.10,2013-02-25 18:54:00,
2013-02-25 14:09:00,35.5,24.0,29.98,South,183,3.0,5.0,64,0.00,,,0.00,weatherlink.com 1.10,2013-02-25 19:09:00,
2013-02-25 14:24:00,35.6,24.0,29.98,South,183,2.0,4.0,63,0.00,,,0.00,weatherlink.com 1.10,2013-02-25 19:24:00,
2013-02-25 14:39:00,36.1,25.0,29.99,South,184,1.0,3.0,65,0.00,,,0.00,weatherlink.com 1.10,2013-02-25 19:39:00,
2013-02-25 14:54:00,36.8,25.0,29.98,South,184,2.0,4.0,63,0.00,,,0.00,weatherlink.com 1.10,2013-02-25 19:54:00,
2013-02-25 15:09:00,37.7,25.0,29.97,South,183,0.0,4.0,60,0.00,,,0.00,weatherlink.com 1.10,2013-02-25 20:09:00,
2013-02-25 15:24:00,37.3,24.0,29.96,South,183,2.0,5.0,60,0.00,,,0.00,weatherlink.com 1.10,2013-02-25 20:24:00,
2013-02-25 15:39:00,38.6,24.0,29.96,South,184,1.0,4.0,57,0.00,,,0.00,weatherlink.com 1.10,2013-02-25 20:39:00,
2013-02-25 15:54:00,38.4,25.0,29.96,South,184,3.0,4.0,58,0.00,,,0.00,weatherlink.com 1.10,2013-02-25 20:54:00,
2013-02-25 16:09:00,38.8,25.0,29.96,South,183,2.0,5.0,59,0.00,,,0.00,weatherlink.com 1.10,2013-02-25 21:09:00,
2013-02-25 16:24:00,38.3,25.0,29.96,South,183,0.0,3.0,59,0.00,,,0.00,weatherlink.com 1.10,2013-02-25 21:24:00,
2013-02-25 16:39:00,38.0,25.0,29.96,South,184,0.0,4.0,60,0.00,,,0.00,weatherlink.com 1.10,2013-02-25 21:39:00,
2013-02-25 16:54:00,38.0,25.0,29.96,South,183,2.0,3.0,61,0.00,,,0.00,weatherlink.com 1.10,2013-02-25 21:54:00,
2013-02-25 17:09:00,38.2,26.0,29.96,South,184,1.0,3.0,61,0.00,,,0.00,weatherlink.com 1.10,2013-02-25 22:09:00,
2013-02-25 17:24:00,37.4,25.0,29.96,South,183,0.0,3.0,62,0.00,,,0.00,weatherlink.com 1.10,2013-02-25 22:24:00,
2013-02-25 17:39:00,36.2,26.0,29.95,South,183,3.0,4.0,66,0.00,,,0.00,weatherlink.com 1.10,2013-02-25 22:39:00,
2013-02-25 17:54:00,35.2,26.0,29.95,South,184,2.0,4.0,68,0.00,,,0.00,weatherlink.com 1.10,2013-02-25 22:54:00,
2013-02-25 18:09:00,34.4,25.0,29.95,South,183,4.0,8.0,69,0.00,,,0.00,weatherlink.com 1.10,2013-02-25 23:09:00,
2013-02-25 18:25:00,33.4,25.0,29.95,South,181,4.0,7.0,71,0.00,,,0.00,weatherlink.com 1.10,2013-02-25 23:25:00,
2013-02-25 18:40:00,33.1,25.0,29.96,South,184,4.0,8.0,71,0.00,,,0.00,weatherlink.com 1.10,2013-02-25 23:40:00,
2013-02-25 18:55:00,32.8,25.0,29.96,South,184,4.0,8.0,73,0.00,,,0.00,weatherlink.com 1.10,2013-02-25 23:55:00,
2013-02-25 19:10:00,32.5,25.0,29.96,South,184,6.0,7.0,74,0.00,,,0.00,weatherlink.com 1.10,2013-02-26 00:10:00,
2013-02-25 19:25:00,33.1,26.0,29.96,South,183,5.0,8.0,74,0.00,,,0.00,weatherlink.com 1.10,2013-02-26 00:25:00,
2013-02-25 19:40:00,33.2,26.0,29.95,South,177,4.0,6.0,74,0.00,,,0.00,weatherlink.com 1.10,2013-02-26 00:40:00,
2013-02-25 19:55:00,33.2,25.0,29.96,South,181,6.0,8.0,73,0.00,,,0.00,weatherlink.com 1.10,2013-02-26 00:55:00,
2013-02-25 20:10:00,33.1,26.0,29.96,South,184,6.0,8.0,74,0.00,,,0.00,weatherlink.com 1.10,2013-02-26 01:10:00,
2013-02-25 20:25:00,32.7,25.0,29.96,South,183,4.0,12.0,74,0.00,,,0.00,weatherlink.com 1.10,2013-02-26 01:25:00,
2013-02-25 20:40:00,32.5,25.0,29.96,South,181,7.0,10.0,75,0.00,,,0.00,weatherlink.com 1.10,2013-02-26 01:40:00,
2013-02-25 20:55:00,32.2,25.0,29.97,South,179,5.0,10.0,76,0.00,,,0.00,weatherlink.com 1.10,2013-02-26 01:55:00,
2013-02-25 21:10:00,31.9,25.0,29.96,South,179,6.0,13.0,77,0.00,,,0.00,weatherlink.com 1.10,2013-02-26 02:10:00,
2013-02-25 21:25:00,31.4,25.0,29.96,South,181,6.0,13.0,78,0.00,,,0.00,weatherlink.com 1.10,2013-02-26 02:25:00,
2013-02-25 21:40:00,31.1,25.0,29.98,South,184,5.0,14.0,79,0.00,,,0.00,weatherlink.com 1.10,2013-02-26 02:40:00,
2013-02-25 21:55:00,30.8,25.0,29.97,South,181,6.0,13.0,80,0.00,,,0.00,weatherlink.com 1.10,2013-02-26 02:55:00,
2013-02-25 22:10:00,30.2,25.0,29.96,South,181,7.0,12.0,82,0.00,,,0.00,weatherlink.com 1.10,2013-02-26 03:10:00,
2013-02-25 22:25:00,29.8,25.0,29.96,South,181,7.0,13.0,83,0.00,,,0.00,weatherlink.com 1.10,2013-02-26 03:25:00,
2013-02-25 22:40:00,29.5,25.0,29.95,South,181,7.0,13.0,83,0.00,,,0.00,weatherlink.com 1.10,2013-02-26 03:40:00,
2013-02-25 22:55:00,29.1,25.0,29.95,South,181,7.0,15.0,85,0.00,,,0.00,weatherlink.com 1.10,2013-02-26 03:55:00,
2013-02-25 23:10:00,28.9,26.0,29.96,South,183,7.0,12.0,87,0.00,,,0.00,weatherlink.com 1.10,2013-02-26 04:10:00,
2013-02-25 23:25:00,28.2,25.0,29.94,South,184,8.0,14.0,89,0.00,,,0.00,weatherlink.com 1.10,2013-02-26 04:25:00,
2013-02-25 23:40:00,27.8,26.0,29.94,South,184,7.0,12.0,91,0.00,,,0.00,weatherlink.com 1.10,2013-02-26 04:40:00,
2013-02-25 23:55:00,27.6,26.0,29.94,SSW,193,11.0,11.0,92,0.00,,,0.00,weatherlink.com 1.10,2013-02-26 04:55:00,